AirNav   Jet Aviation Boston
 
 1074 users online  

7FL3 Adams Ranch Airport
Fort Pierce, Florida, USA

GOING TO FORT PIERCE?


FAA INFORMATION EFFECTIVE 29 MARCH 2018

Location

FAA Identifier: 7FL3
Lat/Long: 27-26-31.1420N / 080-35-03.2010W
27-26.519033N / 080-35.053350W
27.4419839 / -80.5842225
(estimated)
Elevation: 25 ft. / 8 m (estimated)
Variation: 03W (1985)
From city: 14 miles W of FORT PIERCE, FL
Time zone: UTC -4 (UTC -5 during Standard Time)
Zip code: 34945

Airport Operations

Airport use: Private use. Permission required prior to landing
Activation date: 08/1991
Control tower: no
ARTCC: MIAMI CENTER
FSS: MIAMI FLIGHT SERVICE STATION
Attendance: UNATNDD
Wind indicator: yes
Segmented circle: no

Airport Communications

WX ASOS at FPR (12 nm E): PHONE 772-489-4281
WX ASOS at VRB (16 nm NE): PHONE 772-978-9535
WX AWOS-3 at OBE (18 nm SW): 118.675 (863-467-1148)

Nearby radio navigation aids

VOR radial/distance  VOR name  Freq  Var
TRVr207/15.1TREASURE VORTAC117.3007W
MLBr183/39.9MELBOURNE VOR/DME110.0007W
PHKr008/40.0PAHOKEE VOR/DME115.4000E

 
NDB name  Hdg/Dist  Freq  Var  ID
FORT PIERCE264/11.527507WFPR ..-. .--. .-.
UNITED342/34.640505WUTX ..- - -..-
SATELLITE177/39.925706WSQT ... --.- -

Airport Services

Runway Information

Runway 8/26

Dimensions: 2625 x 135 ft. / 800 x 41 m
Surface: turf, in good condition
Runway edge markings: 08/26 THRS ARE MKD WITH THR MARKERS; EDGES NOT MKD.
RUNWAY 8  RUNWAY 26
Traffic pattern: leftleft
Displaced threshold: 200 ft.150 ft.

Airport Ownership and Management from official FAA records

Ownership: Privately-owned
Owner: ADAMS RANCH INC.
PO BOX 12909
FT PIERCE, FL 34979-2909
Phone 407-461-6321
Manager: MICHAEL ADAMS
PO BOX 12909
FT PIERCE, FL 34979-2909
Phone 407-461-6321

Airport Operational Statistics

Aircraft based on the field: 4
Single engine airplanes: 3
Ultralights: 1
    

Additional Remarks

ULTRALIGHT ACTIVITY ON AND INVOF ARPT.

Instrument Procedures

There are no published instrument procedures at 7FL3.

Some nearby airports with instrument procedures:

KFPR - Treasure Coast International Airport (12 nm E)
KVRB - Vero Beach Regional Airport (16 nm NE)
KOBE - Okeechobee County Airport (18 nm SW)
X26 - Sebastian Municipal Airport (23 nm N)
KSUA - Witham Field Airport (25 nm SE)
 
Loc | Ops | Rwys | IFR | FBO | Links
Com | Nav | Svcs | Stats | Notes

Reliance Aviation
AirBoss

 
Area around 7FL3 (Adams Ranch Airport)
 
Road maps at: MapQuest Bing Google
 
Aerial photo
No photo
 
Sectional chart

 
Airport distance calculator
Flying to Adams Ranch Airport? Find the distance to fly.

From to 7FL3

Sunrise and sunset
Times for 23-Apr-2018
 Local
(UTC-4)
 Zulu
(UTC)
Morning civil twilight06:2710:27
Sunrise06:5110:51
Sunset19:5023:50
Evening civil twilight20:1400:14

Current date and time
Zulu (UTC)  23-Apr-2018 23:59:16
Local (UTC-4)  23-Apr-2018 19:59:16
 
METAR
KFPR 
11nm E 
232353Z 17004KT 10SM -RA FEW036 SCT075 BKN100 22/22 A2998 RMK AO2 LTG DSNT S SLP152 P0016 60045 T02170217 10267 20211 50008
KVRB 
15nm NE 
232353Z 16011KT 10SM FEW065 FEW080 BKN120 22/21 A2997 RMK AO2 LTG DSNT S SLP148 60009 T02220206 10289 20222 50005
KOBE 
18nm SW 
232335Z AUTO 08004KT 10SM SCT048 BKN060 OVC090 21/21 A2997 RMK AO2 LTG DSNT W
TAF
KFPR 
11nm E 
232303Z 2323/2418 VRB06KT P6SM VCSH SCT045 OVC070 TEMPO 2323/2402 2SM +SHRA BKN030 FM240900 22003KT P6SM FEW015 SCT060 BKN250 FM241400 24008KT P6SM BKN025
KVRB 
15nm NE 
231943Z 2320/2418 14015KT P6SM VCTS SCT045CB TEMPO 2320/2322 VRB15G25KT 3SM TSRA BKN030CB FM232200 18011KT P6SM VCSH SCT025 BKN035 OVC060 TEMPO 2322/2401 3SM SHRA BKN020 FM240900 22004KT P6SM FEW015 SCT060 BKN250 FM241400 24008KT P6SM BKN025
NOTAMs
Click for the latest NOTAMs
NOTAMs are issued by the DoD/FAA and will open in a separate window not controlled by AirNav.

 

 
 

Would you like to see your business listed on this page?

 If your business provides an interesting product or service to pilots, flight crews, aircraft, or users of the Adams Ranch Airport, you should consider listing it here.  To start the listing process, click on the button below
 
Add a business
 

Other Pages about Adams Ranch Airport

Update a link
 
Copyright © AirNav, LLC. All rights reserved. Privacy Policy  Contact